This is the latest recevied weather packets stored in our database for station/object KB2SKP. If no packets are shown the sender has not sent any weather packets the latest 10 day(s).
| Time | Temp. | Humidity | Pressure | Rain* | Wind** | Luminosity | Snow |
|---|---|---|---|---|---|---|---|
| 1777830261 | 13.89° C | 35% | 1012.7 hPa | 0 mm | - | 40 W/m² | - |
| 1777829961 | 14.44° C | 35% | 1012.5 hPa | 0 mm | - | 51 W/m² | - |
| 1777829657 | 13.89° C | 35% | 1012.7 hPa | 0 mm | - | 37 W/m² | - |
| 1777829354 | 13.89° C | 36% | 1012.8 hPa | 0 mm | - | 44 W/m² | - |
| 1777829052 | 13.89° C | 34% | 1012.9 hPa | 0 mm | - | 47 W/m² | - |
| 1777828747 | 13.33° C | 35% | 1013.2 hPa | 0 mm | - | 46 W/m² | - |
| 1777828444 | 13.89° C | 36% | 1012.9 hPa | 0 mm | - | 119 W/m² | - |
| 1777828142 | 13.89° C | 36% | 1012.9 hPa | 0 mm | - | 50 W/m² | - |
| 1777827838 | 13.89° C | 37% | 1013 hPa | 0 mm | - | 201 W/m² | - |
| 1777827535 | 13.89° C | 35% | 1013 hPa | 0 mm | - | 59 W/m² | - |
| 1777827233 | 13.89° C | 35% | 1013.2 hPa | 0 mm | - | 32 W/m² | - |
| 1777826928 | 13.33° C | 38% | 1013 hPa | 0 mm | - | 33 W/m² | - |
| 1777826626 | 12.78° C | 37% | 1013.1 hPa | 0 mm | - | 32 W/m² | - |
| 1777826322 | 12.78° C | 36% | 1012.9 hPa | 0 mm | - | 31 W/m² | - |
| 1777826020 | 12.78° C | 36% | 1012.8 hPa | 0 mm | - | 31 W/m² | - |
| 1777825717 | 12.22° C | 35% | 1013.2 hPa | 0 mm | - | 20 W/m² | - |
| 1777825415 | 12.78° C | 34% | 1013.3 hPa | 0 mm | - | 18 W/m² | - |
| 1777825111 | 12.78° C | 37% | 1013.3 hPa | 0 mm | - | 30 W/m² | - |
| 1777824807 | 12.22° C | 38% | 1013.5 hPa | 0 mm | - | 29 W/m² | - |
| 1777824504 | 11.67° C | 36% | 1013.4 hPa | 0 mm | - | 30 W/m² | - |
| 1777824200 | 11.67° C | 36% | 1013.3 hPa | 0 mm | - | 31 W/m² | - |
| 1777823896 | 11.67° C | 36% | 1013.5 hPa | 0 mm | - | 32 W/m² | - |
| 1777823594 | 11.67° C | 36% | 1013.5 hPa | 0 mm | - | 30 W/m² | - |
| 1777823291 | 11.67° C | 37% | 1013.4 hPa | 0 mm | - | 31 W/m² | - |
| 1777822988 | 12.22° C | 36% | 1013.5 hPa | 0 mm | - | 30 W/m² | - |
* Rain latest hour (hover to see other rain measurements)
** Current wind speed in m/s (hover to see current wind gust speed)